NC4M Weather Reports


time (UTC)temp
F
wind
direction
speed
knots
gust
knots
rain 1hr
in
rain 24hr
in
rain mn
in
humidity
%
barometer
mb
20260508054306 51 331 0.0 0.0 0.00 0.00 0.00 68 1014.4
20260508053803 50 331 0.0 0.0 0.00 0.00 0.00 68 1014.7
20260508053300 50 331 0.0 0.0 0.00 0.00 0.00 68 1014.6
20260508052758 50 331 0.0 0.0 0.00 0.00 0.00 69 1014.6
20260508052255 50 331 0.0 0.0 0.00 0.00 0.00 70 1014.5
20260508051750 50 331 0.0 0.0 0.00 0.00 0.00 68 1014.9
20260508051246 50 331 0.0 0.0 0.00 0.00 0.00 68 1015.0
20260508050743 50 331 0.0 0.0 0.00 0.00 0.00 69 1015.1
20260508050240 50 331 0.0 0.0 0.00 0.00 0.00 70 1014.9
20260508045735 50 331 0.0 0.0 0.00 0.00 0.00 71 1015.0
20260508045234 50 331 0.0 0.0 0.00 0.00 0.00 73 1015.0
20260508044731 49 331 0.0 0.0 0.00 0.00 0.00 73 1015.0
20260508044228 49 331 0.0 0.0 0.00 0.00 0.00 73 1015.0
20260508043723 49 331 0.0 0.0 0.00 0.00 0.00 76 1015.1
20260508043221 48 331 0.0 0.0 0.00 0.00 0.00 81 1015.2
20260508042718 48 331 0.0 0.0 0.00 0.00 0.00 83 1015.3
20260508042215 48 331 0.0 0.0 0.00 0.00 0.00 84 1015.3
20260508041711 48 331 0.0 0.0 0.00 0.00 0.00 87 1015.3
20260508041209 48 331 0.0 0.0 0.00 0.00 0.00 86 1015.3
20260508040705 48 331 0.0 0.0 0.00 0.00 0.00 86 1015.5
20260508040202 48 331 0.0 0.0 0.00 0.00 0.00 85 1015.4
20260508035659 48 331 0.0 0.0 0.00 0.00 0.00 85 1015.4
20260508035157 48 331 0.0 0.0 0.00 0.00 0.00 85 1015.2
20260508034653 48 331 0.0 0.0 0.00 0.00 0.00 84 1015.4
20260508034150 48 331 0.0 0.0 0.00 0.00 0.00 83 1015.5
20260508033648 48 331 0.0 0.0 0.00 0.00 0.00 84 1015.4
20260508033146 49 331 0.0 0.0 0.00 0.00 0.00 80 1015.1
20260508032643 49 331 0.0 0.0 0.00 0.00 0.00 80 1015.4
20260508032140 49 331 0.0 0.0 0.00 0.00 0.00 79 1015.2
20260508031637 49 331 0.0 0.0 0.00 0.00 0.00 79 1015.2
20260508031133 49 331 0.0 0.0 0.00 0.00 0.00 80 1015.2
20260508030629 50 331 0.0 0.0 0.00 0.00 0.00 77 1015.0
20260508030127 50 331 0.0 0.0 0.00 0.00 0.00 77 1015.2
20260508025623 50 331 0.0 0.0 0.00 0.00 0.00 77 1015.0
20260508025121 50 331 0.0 0.0 0.00 0.00 0.00 80 1015.1
20260508024616 50 331 0.0 0.0 0.00 0.00 0.00 73 1014.9
20260508024114 51 331 0.0 0.0 0.00 0.00 0.00 81 1015.1
20260508023610 51 331 0.0 0.0 0.00 0.00 0.00 78 1015.1
20260508023107 51 331 0.0 0.0 0.00 0.00 0.00 78 1014.9
20260508022603 51 331 0.0 0.0 0.00 0.00 0.00 76 1014.9
20260508022101 51 331 0.0 0.0 0.00 0.00 0.00 76 1014.9
20260508021556 51 331 0.0 0.0 0.00 0.00 0.00 75 1014.5
20260508021052 52 331 0.0 0.0 0.00 0.00 0.00 73 1014.8
20260508020550 52 331 0.0 0.0 0.00 0.00 0.00 76 1014.6
20260508020047 52 331 0.0 0.0 0.00 0.00 0.00 72 1014.5
20260508015545 53 331 0.0 0.0 0.00 0.00 0.00 65 1014.5
20260508015042 53 331 0.0 0.0 0.00 0.00 0.00 73 1014.4
20260508014538 53 331 0.0 0.0 0.00 0.00 0.00 71 1014.2
20260508014034 54 331 0.0 0.0 0.00 0.00 0.00 65 1014.2
20260508013530 54 331 0.0 0.0 0.00 0.00 0.00 64 1014.3
20260508013028 55 331 0.0 0.0 0.00 0.00 0.00 66 1014.1
20260508012525 55 331 0.0 0.0 0.00 0.00 0.00 68 1014.1
20260508012022 55 331 0.0 0.0 0.00 0.00 0.00 55 1014.1
20260508011520 56 331 0.0 0.0 0.00 0.00 0.00 58 1014.1
20260508011017 57 331 0.0 0.0 0.00 0.00 0.00 54 1013.9
20260508010514 57 331 0.0 0.0 0.00 0.00 0.00 57 1013.9
20260508010012 58 331 0.0 0.0 0.00 0.00 0.00 50 1013.9
20260508005508 59 331 0.0 0.0 0.00 0.00 0.00 48 1014.1
20260508005005 59 331 0.0 0.0 0.00 0.00 0.00 47 1013.8
20260508004500 60 331 0.0 0.0 0.00 0.00 0.00 47 1013.7
20260508003958 60 331 0.0 0.0 0.00 0.00 0.00 45 1013.7
20260508003454 60 331 0.0 0.0 0.00 0.00 0.00 45 1013.6
20260508002951 61 331 0.0 0.0 0.00 0.00 0.00 43 1013.6
20260508002448 61 331 0.0 0.0 0.00 0.00 0.00 45 1013.7
20260508001944 62 331 0.0 0.0 0.00 0.00 0.00 43 1013.5
20260508001440 62 331 0.0 0.0 0.00 0.00 0.00 42 1013.5
20260508000937 62 330 0.0 0.0 0.00 0.00 0.00 42 1013.7
20260508000434 62 331 0.0 0.0 0.00 0.00 0.00 42 1013.6
20260507235930 63 329 0.0 0.9 0.00 0.00 0.00 44 1013.5
20260507235427 63 331 0.0 0.0 0.00 0.00 0.00 43 1013.6
20260507234924 63 331 0.0 0.0 0.00 0.00 0.00 42 1013.5
20260507234421 63 331 0.0 0.0 0.00 0.00 0.00 41 1013.4
20260507233917 63 332 0.0 0.0 0.00 0.00 0.00 42 1013.6
20260507233414 64 332 0.0 0.9 0.00 0.00 0.00 41 1013.7
20260507232913 64 5 0.9 0.9 0.00 0.00 0.00 41 1013.7
20260507232409 64 6 0.0 0.0 0.00 0.00 0.00 38 1013.9
20260507231906 64 305 0.0 0.0 0.00 0.00 0.00 39 1013.8
20260507231402 64 305 0.0 0.9 0.00 0.00 0.00 40 1014.2
20260507230859 65 305 0.0 0.0 0.00 0.00 0.00 40 1013.9
20260507230356 65 304 0.0 0.9 0.00 0.00 0.00 40 1014.1
20260507225856 65 102 0.0 0.9 0.00 0.00 0.00 38 1014.2
20260507225353 66 302 0.0 0.9 0.00 0.00 0.00 39 1014.1
20260507224849 66 321 0.0 0.9 0.00 0.00 0.00 40 1014.2
20260507224346 67 310 0.0 0.9 0.00 0.00 0.00 40 1014.3
20260507223841 67 287 0.0 0.0 0.00 0.00 0.00 41 1014.3
20260507223338 68 275 0.0 0.9 0.00 0.00 0.00 36 1014.4
20260507222835 69 275 0.9 0.9 0.00 0.00 0.00 34 1014.3
20260507222331 69 262 1.7 1.7 0.00 0.00 0.00 34 1014.4
20260507221829 70 256 0.0 0.9 0.00 0.00 0.00 35 1014.4
20260507221325 71 273 0.0 1.7 0.00 0.00 0.00 32 1014.7
20260507220821 70 291 0.0 0.9 0.00 0.00 0.00 35 1014.3
20260507220320 70 267 0.0 0.9 0.00 0.00 0.00 38 1014.6
20260507215815 71 303 0.0 0.9 0.00 0.00 0.00 33 1014.6
20260507215313 72 264 0.0 1.7 0.00 0.00 0.00 34 1014.6
20260507214810 70 268 0.0 0.9 0.00 0.00 0.00 36 1014.4
20260507214308 68 258 0.9 0.9 0.00 0.00 0.00 36 1014.4
20260507213802 68 300 0.9 0.9 0.00 0.00 0.00 36 1014.4
20260507213259 71 28 0.9 0.9 0.00 0.00 0.00 32 1014.6
20260507212756 71 266 0.0 0.9 0.00 0.00 0.00 32 1014.5
20260507212252 71 272 0.0 0.9 0.00 0.00 0.00 31 1014.5
20260507211749 70 330 0.9 0.9 0.00 0.00 0.00 33 1014.6
20260507211245 71 294 1.7 2.6 0.00 0.00 0.00 32 1014.7
20260507210742 71 262 0.0 2.6 0.00 0.00 0.00 36 1014.7
20260507210239 70 304 0.9 1.7 0.00 0.00 0.00 31 1014.8
20260507205736 70 51 0.0 0.9 0.00 0.00 0.00 31 1014.8
20260507205233 70 285 0.9 1.7 0.00 0.00 0.00 31 1014.8
20260507204729 69 292 1.7 5.2 0.00 0.00 0.00 32 1014.8
20260507204227 69 284 1.7 3.5 0.00 0.00 0.00 33 1015.0
20260507203724 68 294 0.9 5.2 0.00 0.00 0.00 34 1015.1
20260507203221 69 311 2.6 3.5 0.00 0.00 0.00 29 1015.2
20260507202718 70 276 1.7 2.6 0.00 0.00 0.00 31 1015.2
20260507202214 70 333 0.9 0.9 0.00 0.00 0.00 31 1015.1
20260507201709 69 232 0.0 0.9 0.00 0.00 0.00 41 1015.6
20260507201206 69 212 0.9 0.9 0.00 0.00 0.00 32 1015.4
20260507200702 68 73 0.0 3.5 0.00 0.00 0.00 30 1015.6
20260507200158 68 316 0.9 1.7 0.00 0.00 0.00 33 1015.7
20260507195655 67 300 2.6 5.2 0.00 0.00 0.00 31 1015.7
20260507195152 68 312 2.6 3.5 0.00 0.00 0.00 33 1015.7
20260507194649 68 226 0.9 3.5 0.00 0.00 0.00 37 1015.9
20260507194144 67 311 0.0 0.9 0.00 0.00 0.00 33 1016.1
20260507193641 69 262 0.9 2.6 0.00 0.00 0.00 33 1016.0
20260507193139 68 45 0.0 0.9 0.00 0.00 0.00 31 1015.9
20260507192634 68 66 0.0 1.7 0.00 0.00 0.00 37 1016.0
20260507192132 69 264 0.9 1.7 0.00 0.00 0.00 32 1016.0
20260507191627 69 283 0.9 1.7 0.00 0.00 0.00 32 1015.9
20260507191124 68 297 0.9 1.7 0.00 0.00 0.00 33 1015.9
20260507190622 68 245 0.0 0.9 0.00 0.00 0.00 31 1015.9
20260507190120 69 262 1.7 1.7 0.00 0.00 0.00 33 1016.0
20260507185618 68 37 0.9 0.9 0.00 0.00 0.00 30 1016.0
20260507185114 67 311 0.9 1.7 0.00 0.00 0.00 32 1016.2
20260507184613 68 308 1.7 3.5 0.00 0.00 0.00 30 1016.1
20260507184110 68 319 0.0 2.6 0.00 0.00 0.00 35 1016.3
20260507183606 68 325 0.0 0.9 0.00 0.00 0.00 35 1016.3
20260507183103 67 338 0.9 1.7 0.00 0.00 0.00 33 1016.4
20260507182600 68 268 0.9 2.6 0.00 0.00 0.00 38 1016.6
20260507182055 67 298 1.7 1.7 0.00 0.00 0.00 39 1016.6
20260507181553 68 124 0.9 1.7 0.00 0.00 0.00 34 1016.5
20260507181049 68 310 0.9 1.7 0.00 0.00 0.00 34 1016.7
20260507180545 68 313 0.0 0.9 0.00 0.00 0.00 29 1016.7
20260507180042 67 316 0.9 1.7 0.00 0.00 0.00 35 1016.7
20260507175538 66 341 0.0 1.7 0.00 0.00 0.00 30 1016.8
20260507175037 67 240 0.0 1.7 0.00 0.00 0.00 36 1017.0
20260507174533 67 9 0.0 0.9 0.00 0.00 0.00 33 1016.9
20260507174031 67 246 0.0 0.9 0.00 0.00 0.00 35 1017.1
20260507173527 68 326 0.9 1.7 0.00 0.00 0.00 31 1017.5
20260507173025 68 315 0.0 0.9 0.00 0.00 0.00 34 1017.3
20260507172520 67 299 0.9 0.9 0.00 0.00 0.00 33 1017.4
20260507172018 67 308 0.9 0.9 0.00 0.00 0.00 34 1017.7
20260507171513 67 140 0.0 0.9 0.00 0.00 0.00 33 1017.5
20260507171011 67 238 0.0 1.7 0.00 0.00 0.00 37 1017.6
20260507170507 66 297 0.0 3.5 0.00 0.00 0.00 39 1017.5
20260507170004 67 20 0.9 0.9 0.00 0.00 0.00 33 1017.7
20260507165500 66 248 0.9 0.9 0.00 0.00 0.00 34 1017.6
20260507164956 65 266 0.0 1.7 0.00 0.00 0.00 33 1017.7
20260507164453 65 28 0.9 1.7 0.00 0.00 0.00 38 1018.1
20260507163949 65 258 0.0 1.7 0.00 0.00 0.00 39 1018.1
20260507163447 64 291 1.7 1.7 0.00 0.00 0.00 38 1018.1
20260507162944 65 318 0.0 1.7 0.00 0.00 0.00 35 1018.0
20260507162439 66 325 0.0 1.7 0.00 0.00 0.00 37 1018.2
20260507161937 66 230 0.9 0.9 0.00 0.00 0.00 36 1018.2
20260507161433 65 28 0.0 0.9 0.00 0.00 0.00 37 1018.0
20260507160930 63 10 0.0 0.9 0.00 0.00 0.00 37 1018.1
20260507160426 63 311 0.9 1.7 0.00 0.00 0.00 36 1018.3
20260507155921 62 56 0.9 0.9 0.00 0.00 0.00 36 1018.4
20260507155418 62 306 0.9 0.9 0.00 0.00 0.00 42 1018.4
20260507154915 62 271 0.9 1.7 0.00 0.00 0.00 41 1018.3
20260507154412 61 81 0.0 0.9 0.00 0.00 0.00 46 1018.3
20260507153909 61 0 0.9 1.7 0.00 0.00 0.00 42 1018.3
20260507153405 60 354 0.0 0.9 0.00 0.00 0.00 50 1018.3
20260507152902 60 287 0.0 0.9 0.00 0.00 0.00 49 1018.2
20260507152358 60 332 0.0 0.9 0.00 0.00 0.00 45 1018.3
20260507151854 59 49 0.0 0.0 0.00 0.00 0.00 48 1018.6
20260507151351 59 89 0.9 1.7 0.00 0.00 0.00 46 1018.7
20260507150848 59 307 0.0 0.9 0.00 0.00 0.00 43 1018.7
20260507150344 59 134 0.0 0.9 0.00 0.00 0.00 48 1018.6
20260507145840 58 289 0.0 0.9 0.00 0.00 0.00 56 1018.6
20260507145337 58 289 0.9 0.9 0.00 0.00 0.00 48 1018.6
20260507144834 58 290 0.9 0.9 0.00 0.00 0.00 51 1018.7
20260507144331 57 289 0.9 1.7 0.00 0.00 0.00 51 1018.8
20260507143828 58 42 0.9 0.9 0.00 0.00 0.00 51 1018.6
20260507143325 57 93 0.0 0.9 0.00 0.00 0.00 55 1018.8
20260507142821 57 71 0.0 0.0 0.00 0.00 0.00 56 1018.7
20260507142318 57 49 0.0 0.9 0.00 0.00 0.00 54 1018.8
20260507141814 57 46 0.0 0.9 0.00 0.00 0.00 54 1018.8
20260507141311 56 17 0.0 0.0 0.00 0.00 0.00 53 1018.8
20260507140807 55 359 0.0 0.0 0.00 0.00 0.00 58 1018.6
20260507140305 55 71 0.0 0.9 0.00 0.00 0.00 58 1019.0
20260507135802 54 69 0.0 0.9 0.00 0.00 0.00 58 1018.7
20260507135259 54 76 0.0 0.0 0.00 0.00 0.00 63 1018.9
20260507134755 53 76 0.0 0.0 0.00 0.00 0.00 59 1019.1
20260507134252 53 77 0.0 0.0 0.00 0.00 0.00 62 1019.1
20260507133748 53 227 0.0 0.9 0.00 0.00 0.00 59 1018.8
20260507133244 52 232 0.0 0.0 0.00 0.00 0.00 64 1019.1
20260507132742 51 232 0.0 0.0 0.00 0.00 0.00 72 1019.1
20260507132239 50 232 0.0 0.0 0.00 0.00 0.00 73 1018.9
20260507131736 49 232 0.0 0.0 0.00 0.00 0.00 73 1018.9
20260507131233 48 232 0.0 0.0 0.00 0.00 0.00 77 1019.0
20260507130729 48 232 0.0 0.0 0.00 0.00 0.00 73 1018.9
20260507130227 47 232 0.0 0.0 0.00 0.00 0.00 74 1018.9
20260507125726 46 232 0.0 0.0 0.00 0.00 0.00 74 1018.8
20260507125223 46 232 0.0 0.0 0.00 0.00 0.00 79 1018.8
20260507124720 45 232 0.0 0.0 0.00 0.00 0.00 82 1018.8
20260507124217 44 233 0.0 0.0 0.00 0.00 0.00 82 1018.8
20260507123715 44 233 0.0 0.0 0.00 0.00 0.00 87 1018.7
20260507123212 43 234 0.0 0.0 0.00 0.00 0.00 89 1018.6
20260507122707 42 234 0.0 0.0 0.00 0.00 0.00 88 1018.7
20260507122203 42 234 0.0 0.0 0.00 0.00 0.00 87 1018.5
20260507121659 41 234 0.0 0.0 0.00 0.00 0.00 90 1018.6
20260507121155 41 234 0.0 0.0 0.00 0.00 0.00 93 1018.6
20260507120651 40 234 0.0 0.0 0.00 0.00 0.00 94 1018.6
20260507120148 40 212 0.0 0.0 0.00 0.00 0.00 94 1018.5
20260507115644 39 212 0.0 0.0 0.00 0.00 0.00 94 1018.5
20260507115140 39 212 0.0 0.0 0.00 0.00 0.00 95 1018.5
20260507114636 39 212 0.0 0.0 0.00 0.00 0.00 95 1018.6
20260507114134 39 212 0.0 0.0 0.00 0.00 0.00 95 1018.3
20260507113631 39 211 0.0 0.0 0.00 0.00 0.00 95 1018.2
20260507113128 39 211 0.0 0.0 0.00 0.00 0.00 95 1018.1
20260507112626 39 211 0.0 0.0 0.00 0.00 0.00 95 1018.4
20260507112122 39 212 0.0 0.0 0.00 0.00 0.00 95 1018.3
20260507111619 39 212 0.0 0.0 0.00 0.00 0.00 95 1018.1
20260507111116 39 212 0.0 0.0 0.00 0.00 0.00 95 1018.0
20260507110612 39 212 0.0 0.0 0.00 0.00 0.00 95 1018.0
20260507110109 39 211 0.0 0.0 0.00 0.00 0.00 95 1018.0
20260507105606 39 212 0.0 0.0 0.00 0.00 0.00 95 1018.0
20260507105102 39 212 0.0 0.0 0.00 0.00 0.00 95 1018.0
20260507104600 39 212 0.0 0.0 0.00 0.00 0.00 95 1018.0
20260507104056 40 212 0.0 0.0 0.00 0.00 0.00 95 1017.9
20260507103552 40 212 0.0 0.0 0.00 0.00 0.00 95 1017.7
20260507103049 40 212 0.0 0.0 0.00 0.00 0.00 95 1017.8
20260507102545 40 212 0.0 0.0 0.00 0.00 0.00 95 1017.7
20260507102041 39 212 0.0 0.0 0.00 0.00 0.00 95 1018.1
20260507101537 39 212 0.0 0.0 0.00 0.00 0.00 95 1017.9
20260507101033 39 212 0.0 0.0 0.00 0.00 0.00 95 1017.9
20260507100531 39 212 0.0 0.0 0.00 0.00 0.00 95 1017.9
20260507100029 39 212 0.0 0.0 0.00 0.00 0.00 95 1017.8
20260507095527 39 212 0.0 0.0 0.00 0.00 0.00 95 1018.0
20260507095023 39 212 0.0 0.0 0.00 0.00 0.00 95 1017.9
20260507094519 39 212 0.0 0.0 0.00 0.00 0.00 95 1017.9
20260507094016 39 212 0.0 0.0 0.00 0.00 0.00 94 1017.8
20260507093514 38 212 0.0 0.0 0.00 0.00 0.00 94 1017.8
20260507093012 38 212 0.0 0.0 0.00 0.00 0.00 94 1017.7
20260507092508 38 212 0.0 0.0 0.00 0.00 0.00 94 1017.8
20260507092005 38 212 0.0 0.0 0.00 0.00 0.00 94 1017.6
20260507091502 38 212 0.0 0.0 0.00 0.00 0.00 94 1017.9
20260507090957 38 212 0.0 0.0 0.00 0.00 0.00 94 1017.8
20260507090453 38 212 0.0 0.0 0.00 0.00 0.00 94 1017.9
20260507085950 38 212 0.0 0.0 0.00 0.00 0.00 93 1018.0
20260507085448 38 212 0.0 0.0 0.00 0.00 0.00 93 1017.9
20260507084944 39 212 0.0 0.0 0.00 0.00 0.00 93 1018.1
20260507084441 39 212 0.0 0.0 0.00 0.00 0.00 93 1017.9
20260507083938 39 212 0.0 0.0 0.00 0.00 0.00 93 1017.9
20260507083434 39 212 0.0 0.0 0.00 0.00 0.00 93 1018.0
20260507082931 39 212 0.0 0.0 0.00 0.00 0.00 93 1018.2
20260507082427 39 212 0.0 0.0 0.00 0.00 0.00 92 1017.9
20260507081924 39 212 0.0 0.0 0.00 0.00 0.00 92 1018.1
20260507081420 39 212 0.0 0.0 0.00 0.00 0.00 92 1018.1
20260507080917 39 212 0.0 0.0 0.00 0.00 0.00 92 1018.1
20260507080413 39 212 0.0 0.0 0.00 0.00 0.00 92 1018.1
20260507075908 40 212 0.0 0.0 0.00 0.00 0.00 92 1018.2
20260507075405 40 212 0.0 0.0 0.00 0.00 0.00 92 1018.3
20260507074901 40 212 0.0 0.0 0.00 0.00 0.00 91 1018.4
20260507074358 40 212 0.0 0.0 0.00 0.00 0.00 90 1018.5
20260507073856 40 212 0.0 0.0 0.00 0.00 0.00 90 1018.3
20260507073352 40 212 0.0 0.0 0.00 0.00 0.00 90 1018.3
20260507072849 40 212 0.0 0.0 0.00 0.00 0.00 90 1018.4
20260507072347 40 212 0.0 0.0 0.00 0.00 0.00 90 1018.4
20260507071844 40 212 0.0 0.0 0.00 0.00 0.00 89 1018.2
20260507071341 40 212 0.0 0.0 0.00 0.00 0.00 88 1018.3
20260507070837 41 212 0.0 0.0 0.00 0.00 0.00 88 1018.3
20260507070335 41 212 0.0 0.0 0.00 0.00 0.00 89 1018.5
20260507065831 41 212 0.0 0.0 0.00 0.00 0.00 88 1018.3
20260507065328 41 212 0.0 0.0 0.00 0.00 0.00 87 1018.2
20260507064825 41 212 0.0 0.0 0.00 0.00 0.00 86 1018.2
20260507064324 41 212 0.0 0.0 0.00 0.00 0.00 84 1018.1
20260507063821 41 212 0.0 0.0 0.00 0.00 0.00 84 1018.3
20260507063318 41 212 0.0 0.0 0.00 0.00 0.00 85 1018.4
20260507062815 41 212 0.0 0.0 0.00 0.00 0.00 85 1018.3
20260507062312 41 212 0.0 0.0 0.00 0.00 0.00 89 1018.3
20260507061810 42 212 0.0 0.0 0.00 0.00 0.00 89 1018.4
20260507061308 42 212 0.0 0.0 0.00 0.00 0.00 89 1018.6
20260507060806 42 212 0.0 0.0 0.00 0.00 0.00 88 1018.5
20260507060302 42 212 0.0 0.0 0.00 0.00 0.00 87 1018.5
20260507055759 42 212 0.0 0.0 0.00 0.00 0.00 86 1018.6
20260507055254 42 212 0.0 0.0 0.00 0.00 0.00 88 1018.7
20260507054750 42 212 0.0 0.0 0.00 0.00 0.00 87 1018.3